When you browse on this site, cookies collect data to enhance your experience and personalize the content and advertising you see.
Visit our Privacy Policy to learn more. By continuing to use the site, you agree to this use of cookies and data.
  • In Hungary
  • List of Countries
  • For 7 days
  • Water Temperature
  • Weather Map
  • News
  • Weather Widgets
  • user-avatar
    Login

    Hourly Weather Nameskovo

    Today, 22 September, Sunday

    Time Temperature Precipitation Wind Pressure Humidity
    00:00 +5°C° 0.2 mm 2 mps 736 mmHg 96%
    01:00 +5°C° 0.2 mm 2 mps 735 mmHg 96%
    02:00 +4°C° 0 mm 3 mps 735 mmHg 96%
    03:00 +3°C° 0.5 mm 3 mps 735 mmHg 94%
    04:00 +3°C° 0.5 mm 4 mps 734 mmHg 93%
    05:00 +2°C° 0.5 mm 5 mps 734 mmHg 91%
    06:00 +2°C° 0 mm 5 mps 734 mmHg 89%
    07:00 +2°C° 0 mm 5 mps 734 mmHg 88%
    08:00 +2°C° 0 mm 6 mps 734 mmHg 86%
    09:00 +1°C° 0.1 mm 6 mps 735 mmHg 87%
    10:00 +1°C° 0.1 mm 6 mps 735 mmHg 88%
    11:00 +1°C° 0.1 mm 6 mps 736 mmHg 89%
    12:00 +2°C° 0.1 mm 6 mps 736 mmHg 84%
    13:00 +3°C° 0.1 mm 6 mps 737 mmHg 80%
    14:00 +4°C° 0.1 mm 6 mps 738 mmHg 75%
    15:00 +3°C° 0.2 mm 5 mps 738 mmHg 77%
    16:00 +3°C° 0.2 mm 5 mps 739 mmHg 79%
    17:00 +2°C° 0.2 mm 5 mps 739 mmHg 81%
    18:00 +2°C° 0 mm 5 mps 740 mmHg 84%
    19:00 +1°C° 0 mm 4 mps 740 mmHg 87%
    20:00 0°C° 0 mm 4 mps 741 mmHg 90%
    21:00 0°C° 0 mm 4 mps 741 mmHg 89%
    22:00 0°C° 0 mm 4 mps 741 mmHg 89%
    23:00 0°C° 0 mm 5 mps 742 mmHg 89%

    Tomorrow, 23 September, Monday

    Time Temperature Precipitation Wind Pressure Humidity
    00:00 0°C° 0 mm 5 mps 742 mmHg 89%
    01:00 0°C° 0 mm 5 mps 743 mmHg 88%
    02:00 0°C° 0 mm 5 mps 743 mmHg 88%
    03:00 0°C° 0 mm 5 mps 743 mmHg 87%
    04:00 0°C° 0 mm 5 mps 743 mmHg 87%
    05:00 0°C° 0 mm 5 mps 743 mmHg 87%
    06:00 0°C° 0 mm 5 mps 744 mmHg 83%
    07:00 +1°C° 0 mm 6 mps 744 mmHg 80%
    08:00 +1°C° 0 mm 6 mps 744 mmHg 77%
    09:00 +2°C° 0 mm 6 mps 745 mmHg 73%
    10:00 +2°C° 0 mm 6 mps 745 mmHg 69%
    11:00 +3°C° 0 mm 6 mps 745 mmHg 65%
    12:00 +3°C° 0 mm 6 mps 745 mmHg 64%
    13:00 +4°C° 0 mm 6 mps 745 mmHg 64%
    14:00 +4°C° 0 mm 6 mps 745 mmHg 63%
    15:00 +3°C° 0.1 mm 6 mps 745 mmHg 68%
    16:00 +3°C° 0.1 mm 5 mps 745 mmHg 72%
    17:00 +2°C° 0.1 mm 5 mps 746 mmHg 77%
    18:00 +3°C° 0 mm 4 mps 746 mmHg 81%
    19:00 +1°C° 0 mm 4 mps 746 mmHg 85%
    20:00 0°C° 0 mm 4 mps 746 mmHg 90%
    21:00 +1°C° 0 mm 3 mps 746 mmHg 91%
    22:00 +1°C° 0 mm 3 mps 746 mmHg 93%
    23:00 +1°C° 0 mm 2 mps 746 mmHg 94%

    Day after tomorrow, 24 September, Tuesday

    Time Temperature Precipitation Wind Pressure Humidity
    00:00 0°C° 0 mm 3 mps 746 mmHg 94%
    01:00 0°C° 0 mm 3 mps 746 mmHg 94%
    02:00 -1°C° 0 mm 3 mps 747 mmHg 94%
    03:00 -1°C° 0 mm 3 mps 747 mmHg 95%
    04:00 -1°C° 0 mm 3 mps 747 mmHg 95%
    05:00 -2°C° 0 mm 2 mps 747 mmHg 96%
    06:00 -1°C° 0 mm 3 mps 747 mmHg 90%
    07:00 0°C° 0 mm 3 mps 747 mmHg 85%
    08:00 +1°C° 0 mm 3 mps 747 mmHg 80%
    09:00 +2°C° 0 mm 3 mps 747 mmHg 75%
    10:00 +3°C° 0 mm 3 mps 747 mmHg 69%
    11:00 +3°C° 0 mm 3 mps 747 mmHg 64%
    12:00 +4°C° 0 mm 3 mps 747 mmHg 64%
    13:00 +4°C° 0 mm 3 mps 747 mmHg 65%
    14:00 +4°C° 0 mm 3 mps 747 mmHg 65%
    15:00 +4°C° 0 mm 3 mps 747 mmHg 68%
    16:00 +4°C° 0 mm 2 mps 747 mmHg 72%
    17:00 +4°C° 0 mm 2 mps 747 mmHg 75%
    18:00 +3°C° 0 mm 2 mps 747 mmHg 80%
    19:00 +3°C° 0 mm 2 mps 747 mmHg 84%
    20:00 +2°C° 0 mm 2 mps 747 mmHg 88%
    21:00 +2°C° 0 mm 2 mps 747 mmHg 90%
    22:00 +1°C° 0 mm 2 mps 747 mmHg 92%
    23:00 -1°C° 0 mm 2 mps 747 mmHg 94%

    25 September, Wednesday

    Time Temperature Precipitation Wind Pressure Humidity
    00:00 -1°C° 0 mm 2 mps 747 mmHg 95%
    01:00 -1°C° 0 mm 2 mps 747 mmHg 95%
    02:00 -2°C° 0 mm 2 mps 747 mmHg 96%
    03:00 -2°C° 0 mm 2 mps 747 mmHg 95%
    04:00 -2°C° 0 mm 2 mps 747 mmHg 95%
    05:00 -3°C° 0 mm 2 mps 747 mmHg 95%
    06:00 -1°C° 0 mm 2 mps 747 mmHg 89%
    07:00 +1°C° 0 mm 2 mps 747 mmHg 83%
    08:00 +2°C° 0 mm 2 mps 748 mmHg 77%
    09:00 +4°C° 0 mm 2 mps 748 mmHg 70%
    10:00 +5°C° 0 mm 2 mps 748 mmHg 64%
    11:00 +6°C° 0 mm 2 mps 748 mmHg 57%
    12:00 +7°C° 0 mm 2 mps 748 mmHg 56%
    13:00 +7°C° 0 mm 2 mps 748 mmHg 55%
    14:00 +7°C° 0 mm 2 mps 748 mmHg 54%
    15:00 +6°C° 0 mm 2 mps 748 mmHg 60%
    16:00 +6°C° 0 mm 1 mps 747 mmHg 67%
    17:00 +5°C° 0 mm 1 mps 747 mmHg 73%
    18:00 +4°C° 0 mm 1 mps 748 mmHg 76%
    19:00 +3°C° 0 mm 1 mps 748 mmHg 80%
    20:00 +2°C° 0 mm 1 mps 748 mmHg 83%
    21:00 +2°C° 0 mm 1 mps 748 mmHg 84%
    22:00 +2°C° 0 mm 1 mps 748 mmHg 85%
    23:00 +2°C° 0 mm 1 mps 748 mmHg 87%

    26 September, Thursday

    Time Temperature Precipitation Wind Pressure Humidity
    00:00 +2°C° 0 mm 1 mps 748 mmHg 87%
    01:00 +2°C° 0 mm 1 mps 748 mmHg 87%
    02:00 +2°C° 0 mm 1 mps 748 mmHg 87%
    03:00 +2°C° 0 mm 1 mps 748 mmHg 87%
    04:00 +2°C° 0 mm 1 mps 748 mmHg 88%
    05:00 +3°C° 0 mm 1 mps 748 mmHg 89%
    06:00 +4°C° 0 mm 1 mps 748 mmHg 85%
    07:00 +5°C° 0 mm 1 mps 748 mmHg 82%
    08:00 +6°C° 0 mm 1 mps 748 mmHg 78%
    09:00 +7°C° 0 mm 1 mps 748 mmHg 71%
    10:00 +8°C° 0 mm 1 mps 748 mmHg 65%
    11:00 +10°C° 0 mm 1 mps 748 mmHg 58%
    12:00 +10°C° 0 mm 1 mps 748 mmHg 57%
    13:00 +9°C° 0 mm 2 mps 747 mmHg 56%
    14:00 +10°C° 0 mm 2 mps 747 mmHg 55%
    15:00 +9°C° 0 mm 1 mps 747 mmHg 61%
    16:00 +8°C° 0 mm 1 mps 746 mmHg 66%
    17:00 +6°C° 0 mm 0 mps 746 mmHg 72%
    18:00 +5°C° 0 mm 0 mps 746 mmHg 75%
    19:00 +4°C° 0 mm 0 mps 746 mmHg 79%
    20:00 +4°C° 0 mm 0 mps 745 mmHg 82%
    21:00 +3°C° 0 mm 0 mps 745 mmHg 84%
    22:00 +3°C° 0 mm 0 mps 745 mmHg 86%
    23:00 +3°C° 0 mm 0 mps 745 mmHg 87%

    27 September, Friday

    Time Temperature Precipitation Wind Pressure Humidity
    00:00 +3°C° 0 mm 0 mps 745 mmHg 87%
    01:00 +3°C° 0 mm 0 mps 744 mmHg 87%
    02:00 +4°C° 0 mm 1 mps 744 mmHg 86%
    03:00 +4°C° 0 mm 1 mps 744 mmHg 86%
    04:00 +3°C° 0 mm 2 mps 744 mmHg 85%
    05:00 +3°C° 0 mm 2 mps 744 mmHg 84%
    06:00 +4°C° 0 mm 2 mps 744 mmHg 84%
    07:00 +4°C° 0 mm 2 mps 744 mmHg 83%
    08:00 +4°C° 0 mm 2 mps 744 mmHg 82%
    09:00 +4°C° 0 mm 3 mps 744 mmHg 77%
    10:00 +5°C° 0 mm 3 mps 745 mmHg 73%
    11:00 +6°C° 0 mm 4 mps 745 mmHg 69%
    12:00 +6°C° 0 mm 4 mps 745 mmHg 69%
    13:00 +6°C° 0 mm 4 mps 745 mmHg 69%
    14:00 +6°C° 0 mm 4 mps 745 mmHg 69%
    15:00 +5°C° 0 mm 3 mps 746 mmHg 71%
    16:00 +4°C° 0 mm 3 mps 746 mmHg 73%
    17:00 +5°C° 0 mm 2 mps 746 mmHg 75%
    18:00 +4°C° 0 mm 2 mps 747 mmHg 80%
    19:00 +3°C° 0 mm 2 mps 747 mmHg 84%
    20:00 +3°C° 0 mm 2 mps 748 mmHg 88%
    21:00 +2°C° 0 mm 2 mps 748 mmHg 90%
    22:00 +1°C° 0 mm 2 mps 749 mmHg 92%
    23:00 +1°C° 0 mm 2 mps 749 mmHg 94%
    Show more